Location: Nebula Knoll Observatory
(43.6666°N, 71.0000°W)
Time: 13:46:25
(UTC-04:00)

Cosmos 1782 - Visible Passes

Search period start: 31 October 2014 00:00
Search period end: 09 November 2014 23:00
Orbit: 547 x 564 km, 82.5° (Epoch: 31 October)

Date Brightness Start Highest point End Pass type
(mag) Time Alt. Az. Time Alt. Az. Time Alt. Az.
03 Nov 4.5 05:50:38 10° N 05:54:27 37° ENE 05:58:15 10° SE visible
04 Nov 4.2 05:48:08 10° N 05:52:02 43° ENE 05:55:56 10° SSE visible
05 Nov 3.9 05:45:38 10° N 05:49:37 50° ENE 05:53:35 10° SSE visible
06 Nov 3.6 05:43:08 10° N 05:47:10 58° E 05:51:11 10° SSE visible
07 Nov 3.3 05:40:38 10° N 05:44:43 67° E 05:48:47 10° SSE visible
08 Nov 3.1 05:38:09 10° N 05:42:15 78° E 05:46:20 10° SSE visible
08 Nov 4.4 18:00:46 10° SSE 18:02:17 20° SE 18:02:17 20° SE visible
08 Nov 5.9 19:38:03 10° WSW 19:38:14 11° WSW 19:38:14 11° WSW visible
09 Nov 2.9 05:35:40 10° N 05:39:46 89° E 05:43:52 10° S visible
09 Nov 3.4 17:58:08 10° SSE 18:01:20 36° ESE 18:01:20 36° ESE visible
09 Nov 5.7 19:35:52 10° WSW 19:37:16 15° W 19:37:16 15° W visible
